[[{"header":{"parameterUnit":"m.s-1","parameterCategory":2,"la1":30.2991,"la2":30.254,"lo1":-89.0895,"lo2":-89.0444,"dy":0.0017,"dx":0.0017,"nx":28,"ny":28,"refTime":"2024-03-14T21:00:00:Z","depth":"0","parameterNumber":2,"parameterNumberName":"U-component_of_CURRENTS"},"data":[0,0,0,0,0,0,0,0,0,0,0,0,0,0,0,0,0,0,0,0,0,0,0,0,0,0,0,0,0,0,0,0,0,0,0,0,0,0,0,0,0,0,0,0,0,0,0,0,0,0,0,0,0,0,0,0,0,0,0.319,0.3191,0,0.3222,0.3222,0.3222,0.3215,0.3215,0.3215,0.3215,0.318,0.3179,0.3178,0,0,0,0,0,0,0,0,0,0,0,0,0,0.3105,0.3106,0.319,0.3191,0.3192,0.3222,0.3222,0.3222,0.3215,0.3215,0.3215,0.3215,0.318,0.3179,0.3178,0,0,0,0,0,0,0,0,0,0,0,0,0,0.3134,0.3106,0.319,0.3196,0.3198,0.3222,0.3222,0.3222,0.3215,0.3215,0.3215,0.3215,0.3181,0.3179,0.3178,0.3172,0,0,0.3174,0.3174,0,0,0,0,0,0,0,0,0.3133,0.3137,0.3194,0.3196,0.3198,0.322,0.3179,0.3204,0.3215,0.3202,0.3215,0.3215,0.3191,0.3189,0.3188,0.317,0.3169,0.3174,0.3173,0.3173,0.3172,0,0,0,0,0,0,0,0.313,0.3135,0.3197,0.3196,0.3198,0.3192,0.3195,0.3184,0.3191,0.3204,0.3205,0.3217,0.319,0.3189,0.3187,0.3168,0.3174,0.3173,0.3172,0.3172,0.319,0.3191,0,0,0,0,0,0,0.314,0.3133,0.3196,0.3198,0.3171,0.3194,0.3198,0.3208,0.3193,0.3193,0.3218,0.3217,0.3191,0.3188,0.3185,0.321,0.3173,0.3171,0.3171,0.3189,0.319,0.3192,0,0,0,0,0,0,0.3137,0.3145,0.3195,0.3171,0.3178,0.3196,0.3207,0.3209,0.3214,0.3205,0.3202,0.3223,0.3191,0.3187,0.3188,0.3207,0.3171,0.317,0.3187,0.3189,0.3191,0.3237,0,0,0,0,0,0,0.3135,0.3143,0.3149,0.3172,0.318,0.3215,0.3208,0.321,0.3224,0.3224,0.3208,0.3205,0.3191,0.3191,0.3187,0.3205,0.3169,0.3186,0.3188,0.319,0.3234,0.324,0.3246,0,0,0,0,0,0.3131,0.3144,0.3149,0.3157,0.3188,0.3217,0.3219,0.3228,0.3225,0.323,0.3225,0.3205,0.3204,0.319,0.3186,0.3203,0.3184,0.3187,0.319,0.3231,0.3239,0.3246,0,0,0,0,0,0,0.3109,0.3145,0.3151,0.3173,0.3197,0.3218,0.3228,0.3233,0.3233,0.3232,0.3215,0.3211,0.3226,0.3208,0.3194,0.3219,0.3194,0.3196,0.3227,0.3234,0.324,0.3255,0.3167,0,0,0,0,0,0.3108,0.3128,0.3159,0.3178,0.319,0.3208,0.322,0.323,0.3239,0.3239,0.3228,0.3224,0.3234,0.3228,0.323,0.3231,0.3244,0.3243,0.3249,0.3254,0.3266,0.3305,0.3316,0.3201,0.3201,0.3201,0,0,0.3109,0.313,0.3143,0.3175,0.3191,0.3206,0.3213,0.324,0.3253,0.3234,0.3239,0.3246,0.3243,0.3256,0.326,0.324,0.3296,0.3258,0.3262,0.3272,0.331,0.3321,0.3331,0.3203,0.3203,0.3202,0,0,0.311,0.3136,0.3145,0.3164,0.3197,0.3214,0.3224,0.3247,0.3259,0.3272,0.3274,0.3295,0.3283,0.3298,0.3302,0.334,0.3334,0.3337,0.3368,0.3406,0.3416,0.3424,0.3465,0.3477,0.333,0.333,0.333,0,0.311,0.3119,0.3152,0.3161,0.3177,0.3216,0.3225,0.325,0.327,0.3288,0.3279,0.3312,0.3309,0.3346,0.3366,0.3355,0.3374,0.3338,0.3414,0.3423,0.3431,0.347,0.3483,0.3333,0.3332,0.3332,0.3332,0,0.3112,0.3117,0.3128,0.3151,0.3173,0.3195,0.3236,0.3263,0.3283,0.3307,0.3353,0.3364,0.3383,0.3392,0.339,0.345,0.3446,0.3424,0.3395,0.3445,0.3483,0.3496,0.3336,0.3336,0.3335,0.3334,0,0,0.3121,0.3126,0.3128,0.3127,0.317,0.319,0.3231,0.328,0.3321,0.3347,0.3393,0.3428,0.3447,0.3455,0.3463,0.3499,0.358,0.3488,0.3489,0.3528,0.3672,0.367,0.3682,0.3569,0.3572,0.3573,0.3678,0,0.3112,0.3102,0.3118,0.3127,0.313,0.3182,0.3221,0.3277,0.3327,0.3385,0.3431,0.3479,0.3466,0.3492,0.3526,0.3579,0.3614,0.3554,0.3618,0.3621,0.3611,0.3697,0.3622,0.371,0.369,0.3692,0.3694,0,0.3114,0.3099,0.3087,0.3111,0.3123,0.3141,0.3222,0.3265,0.3367,0.3411,0.3471,0.3515,0.3594,0.3569,0.3673,0.3636,0.3659,0.3689,0.3692,0.3683,0.3641,0.3655,0.3732,0.3653,0.3713,0.3711,0.371,0,0.3103,0.3093,0.3075,0.308,0.3112,0.3132,0.3171,0.3267,0.333,0.3437,0.3506,0.3579,0.365,0.3689,0.3759,0.3722,0.3873,0.382,0.3836,0.3835,0.3783,0.3774,0.379,0.3883,0.3883,0.3883,0.3882,0,0.31,0.3093,0.306,0.3058,0.3073,0.3106,0.3167,0.3235,0.334,0.3442,0.3516,0.3617,0.3689,0.3783,0.3799,0.388,0.3902,0.3874,0.3874,0.3797,0.3789,0.3724,0.3668,0.3887,0.3886,0.3885,0.3884,0,0.3111,0.3083,0.3073,0.3068,0.3068,0.3089,0.3165,0.3231,0.333,0.3468,0.3515,0.3677,0.381,0.3872,0.397,0.3955,0.3914,0.4018,0.3931,0.3919,0.3834,0.3783,0.3647,0.3537,0.4053,0.4053,0.4054,0,0.3109,0.3094,0.3078,0.3078,0.3074,0.3097,0.3142,0.3223,0.3304,0.3515,0.3595,0.3766,0.3891,0.4036,0.4058,0.41,0.3947,0.4031,0.3941,0.3852,0.3796,0.3602,0.3504,0.3892,0.3892,0.3891,0.3891,0,0.311,0.311,0.3107,0.3095,0.3109,0.3128,0.3188,0.324,0.3377,0.3491,0.3661,0.3771,0.3962,0.3998,0.407,0.4076,0.3856,0.4019,0.3948,0.3704,0.3473,0.336,0.3802,0.3885,0.3886,0.3886,0.3886,0.3887,0.3123,0.3127,0.3116,0.3109,0.3124,0.3136,0.3137,0.3222,0.331,0.3444,0.3623,0.3729,0.3896,0.4,0.3971,0.391,0.3829,0.3822,0.3782,0.3604,0.3447,0.3888,0.3952,0.3953,0.3953,0.3954,0.3955,0,0.3108,0.3115,0.3125,0.3096,0.309,0.3104,0.315,0.3131,0.3184,0.3347,0.3456,0.3616,0.3688,0.3756,0.3815,0.3707,0.3492,0.3609,0.3324,0.3248,0.3688,0.3634,0.3605,0.3605,0.3605,0.3605,0.3606,0.3606,0.3103,0.3094,0.3089,0.3036,0.3024,0.2958,0.2957,0.2952,0.3011,0.3072,0.3143,0.3264,0.351,0.3673,0.3613,0.3525,0.3231,0.3116,0.3046,0.3393,0.3408,0.3422,0.3359,0.3274,0.3273,0.2491,0.2486,0.2481]},{"header":{"parameterUnit":"m.s-1","parameterCategory":2,"la1":30.2991,"la2":30.254,"lo1":-89.0895,"lo2":-89.0444,"dy":0.0017,"dx":0.0017,"nx":28,"ny":28,"refTime":"2024-03-14T21:00:00:Z","depth":"0","parameterNumber":3,"parameterNumberName":"V-component_of_CURRENTS"},"data":[0,0,0,0,0,0,0,0,0,0,0,0,0,0,0,0,0,0,0,0,0,0,0,0,0,0,0,0,0,0,0,0,0,0,0,0,0,0,0,0,0,0,0,0,0,0,0,0,0,0,0,0,0,0,0,0,0,0,0.0197,0.0196,0,0.0131,0.0131,0.013,0.0077,0.0077,0.0076,0.0076,-0.0018,-0.0021,-0.0023,0,0,0,0,0,0,0,0,0,0,0,0,0,0.0232,0.0232,0.0197,0.0196,0.0196,0.0132,0.0131,0.013,0.0077,0.0077,0.0076,0.0075,-0.0018,-0.002,-0.0023,0,0,0,0,0,0,0,0,0,0,0,0,0,0.0196,0.0232,0.0197,0.0162,0.0159,0.0132,0.0131,0.0129,0.0077,0.0077,0.0076,0.0075,-0.0017,-0.002,-0.0023,-0.0029,0,0,-0.0033,-0.0034,0,0,0,0,0,0,0,0,0.0198,0.0195,0.0168,0.0165,0.0161,0.0113,0.0108,0.0075,0.0077,0.0107,0.0076,0.0075,0.0024,0.0017,0.0006,-0.0033,-0.0037,-0.0033,-0.0035,-0.0036,-0.0037,0,0,0,0,0,0,0,0.0201,0.0197,0.017,0.0168,0.0163,0.0135,0.0129,0.0102,0.0069,0.0105,0.0101,0.0095,0.0021,0.0009,0.0003,-0.0039,-0.0033,-0.0036,-0.0038,-0.0039,-0.0101,-0.0101,0,0,0,0,0,0,0.0214,0.02,0.0172,0.0168,0.0179,0.0135,0.0129,0.0128,0.007,0.0061,0.0096,0.0093,0.0014,0.0007,-0.0001,-0.0006,-0.0036,-0.0039,-0.0041,-0.0101,-0.0101,-0.0101,0,0,0,0,0,0,0.0215,0.0212,0.0175,0.0183,0.0176,0.0135,0.0135,0.0127,0.0114,0.0064,0.0054,0.0091,0.0014,0.0004,-0.0022,-0.001,-0.004,-0.0043,-0.0102,-0.0101,-0.0101,-0.0019,0,0,0,0,0,0,0.0216,0.0213,0.0219,0.0184,0.0176,0.0167,0.0135,0.0126,0.0112,0.0107,0.0056,0.0047,0.0012,-0.0017,-0.0025,-0.0015,-0.0046,-0.0102,-0.0102,-0.0101,-0.0022,-0.0016,-0.0011,0,0,0,0,0,0.0218,0.0236,0.022,0.0216,0.0185,0.0168,0.0162,0.0129,0.0113,0.0113,0.0076,0.0048,-0.0021,-0.0019,-0.0029,-0.0019,-0.0102,-0.0102,-0.0101,-0.0024,-0.0017,-0.0011,0,0,0,0,0,0,0.0253,0.0231,0.0213,0.0222,0.0198,0.0159,0.0161,0.0135,0.0107,0.0106,0.0052,0.0041,0.0021,-0.0011,-0.0008,-0.0038,-0.0067,-0.0068,-0.0005,0.0001,0.0007,0.0033,-0.0048,0,0,0,0,0,0.0265,0.0271,0.0239,0.0245,0.0239,0.02,0.0189,0.0169,0.0138,0.0125,0.0087,0.0048,0.0016,0.0,-0.0034,-0.0045,-0.0074,-0.0047,-0.0041,-0.0036,-0.0022,-0.0058,-0.0054,-0.0099,-0.0099,-0.0099,0,0,0.028,0.0268,0.0271,0.0253,0.0233,0.0236,0.0192,0.0186,0.0186,0.012,0.011,0.0066,0.0016,-0.0,-0.0012,-0.0024,-0.0039,-0.0035,-0.003,-0.0019,-0.0057,-0.0052,-0.0048,-0.0099,-0.0099,-0.0099,0,0,0.032,0.0305,0.0325,0.0312,0.0292,0.0269,0.027,0.0236,0.0219,0.0201,0.0153,0.0122,0.0071,0.0042,0.0018,0.0036,-0.001,0.002,0.0074,0.0039,0.0043,0.0046,0.0018,0.0018,0.0025,0.0026,0.0026,0,0.0339,0.0357,0.0327,0.0341,0.0338,0.0289,0.0307,0.0286,0.0246,0.024,0.0209,0.014,0.0094,0.0077,0.0079,0.0051,0.0024,0.0055,0.0048,0.005,0.0052,0.0022,0.0021,0.003,0.0029,0.0029,0.0028,0,0.0392,0.0404,0.0416,0.0417,0.0409,0.0417,0.0385,0.0379,0.0348,0.032,0.0292,0.0226,0.0188,0.0163,0.0125,0.0117,0.0091,0.0059,0.0037,0.0062,0.0029,0.0026,0.0035,0.0034,0.0033,0.0032,0,0,0.0434,0.0452,0.0454,0.0469,0.045,0.0452,0.0459,0.045,0.0465,0.0407,0.0417,0.0342,0.0303,0.0274,0.0219,0.0184,0.0166,0.0134,0.013,0.0118,0.0095,0.0084,0.0079,0.0132,0.0131,0.0131,0.0068,0,0.0481,0.0531,0.0521,0.0561,0.0582,0.055,0.0565,0.055,0.0523,0.0521,0.0448,0.0426,0.0346,0.0331,0.0285,0.0201,0.0162,0.0187,0.0062,0.0059,0.0055,0.0077,0.011,0.0057,0.0065,0.0064,0.0064,0,0.0533,0.0558,0.0612,0.0642,0.065,0.0669,0.0687,0.0694,0.0675,0.0656,0.0617,0.0553,0.0498,0.0424,0.0296,0.0315,0.0216,0.014,0.0135,0.0098,0.0044,0.003,0.0051,-0.0154,0.0059,0.006,0.006,0,0.0579,0.062,0.0668,0.0676,0.0702,0.0729,0.0744,0.074,0.0772,0.0745,0.077,0.0667,0.0647,0.0502,0.0342,0.0317,0.0204,0.0147,0.0041,0.0039,0.003,0.0028,-0.015,0.0054,0.0055,0.0055,0.0055,0,0.0631,0.0667,0.0701,0.0728,0.0803,0.0791,0.0867,0.087,0.0895,0.0969,0.085,0.0889,0.0667,0.0571,0.0393,0.0226,0.0239,0.0063,0.0026,0.0059,0.006,-0.0149,-0.0243,0.0052,0.0053,0.0053,0.0054,0,0.0676,0.0693,0.076,0.0807,0.0832,0.0887,0.0972,0.1033,0.1038,0.1136,0.1138,0.1064,0.0941,0.0711,0.049,0.0321,0.0033,0.0067,0.0125,0.0097,-0.0203,-0.0291,-0.0482,-0.0565,-0.0062,-0.0062,-0.0063,0,0.0703,0.0743,0.0829,0.0888,0.092,0.1,0.1076,0.1107,0.1187,0.1266,0.1335,0.1241,0.1221,0.0884,0.0537,0.0219,0.0029,0.0042,-0.0009,-0.0204,-0.0331,-0.0409,-0.047,0.0008,0.0008,0.0008,0.0008,0,0.0762,0.0797,0.086,0.0981,0.1074,0.1178,0.1289,0.1375,0.1447,0.1546,0.166,0.1649,0.1334,0.1019,0.0562,0.0344,-0.0081,0.0034,-0.0187,-0.0298,-0.0375,-0.0475,0.0031,0.0009,0.0009,0.0009,0.0009,0.0009,0.0812,0.0876,0.097,0.1082,0.1198,0.1345,0.145,0.1589,0.175,0.1922,0.1904,0.1941,0.1475,0.0854,0.0508,-0.0094,-0.0102,-0.0273,-0.0364,-0.0427,-0.0506,0.0009,-0.0046,-0.0047,-0.0047,-0.0047,-0.0048,0,0.0866,0.0947,0.1063,0.1207,0.1343,0.139,0.1586,0.171,0.1928,0.2101,0.2207,0.2011,0.1437,0.0841,0.0019,-0.0421,-0.0573,-0.0647,-0.0763,-0.0809,-0.0367,-0.0365,-0.0468,-0.0468,-0.0468,-0.0468,-0.0467,-0.0467,0.0902,0.1017,0.1077,0.1294,0.1407,0.1594,0.1712,0.1922,0.2077,0.2301,0.2347,0.2325,0.1867,0.0414,-0.0601,-0.0823,-0.1117,-0.1169,-0.1339,-0.1059,-0.1032,-0.1006,-0.103,-0.1271,-0.1272,-0.173,-0.1735,-0.1738]}],[{"header":{"parameterUnit":"m.s-1","parameterCategory":2,"la1":30.2991,"la2":30.254,"lo1":-89.0895,"lo2":-89.0444,"dy":0.0017,"dx":0.0017,"nx":28,"ny":28,"refTime":"2024-03-14T21:00:00:Z","depth":"2","parameterNumber":2,"parameterNumberName":"U-component_of_CURRENTS"},"data":[0,0,0,0,0,0,0,0,0,0,0,0,0,0,0,0,0,0,0,0,0,0,0,0,0,0,0,0,0,0,0,0,0,0,0,0,0,0,0,0,0,0,0,0,0,0,0,0,0,0,0,0,0,0,0,0,0,0,0.2498,0.2499,0,0.2559,0.2559,0.2559,0.2581,0.2581,0.2581,0.2581,0.2597,0.2598,0.2598,0,0,0,0,0,0,0,0,0,0,0,0,0,0.2413,0.2414,0.2498,0.2499,0.25,0.2558,0.2559,0.256,0.2581,0.2581,0.2581,0.2581,0.2597,0.2598,0.2598,0,0,0,0,0,0,0,0,0,0,0,0,0,0.2457,0.2414,0.2497,0.2519,0.2522,0.2558,0.2559,0.256,0.2581,0.2581,0.2581,0.2581,0.2597,0.2597,0.2598,0.2602,0,0,0.26,0.26,0,0,0,0,0,0,0,0,0.2454,0.2459,0.2515,0.2518,0.2521,0.2564,0.2535,0.2573,0.2581,0.2556,0.2581,0.2581,0.2584,0.2585,0.2594,0.2603,0.2604,0.26,0.2601,0.2601,0.2601,0,0,0,0,0,0,0,0.2451,0.2457,0.2519,0.2516,0.252,0.253,0.2536,0.2543,0.2566,0.2558,0.256,0.2571,0.2585,0.2593,0.2594,0.2604,0.26,0.2601,0.2601,0.2601,0.267,0.2672,0,0,0,0,0,0,0.2448,0.2454,0.2517,0.2521,0.249,0.2532,0.2539,0.2548,0.2567,0.2571,0.2571,0.2572,0.2592,0.2594,0.2595,0.2645,0.2601,0.2602,0.2602,0.2669,0.2671,0.2672,0,0,0,0,0,0,0.2446,0.2453,0.2515,0.2491,0.25,0.2534,0.2544,0.2549,0.2572,0.2578,0.2581,0.259,0.2592,0.2594,0.2618,0.2644,0.2602,0.2602,0.2667,0.2669,0.2671,0.2717,0,0,0,0,0,0,0.2443,0.2452,0.2462,0.2491,0.2501,0.255,0.2545,0.2551,0.2579,0.2581,0.2595,0.2596,0.2592,0.2617,0.2619,0.2644,0.2603,0.2665,0.2668,0.2671,0.2713,0.272,0.2726,0,0,0,0,0,0.244,0.2455,0.2462,0.247,0.2513,0.2551,0.2557,0.2579,0.258,0.2598,0.2608,0.2596,0.2636,0.2619,0.262,0.2646,0.2664,0.2667,0.2671,0.271,0.2719,0.2726,0,0,0,0,0,0,0.2424,0.246,0.2468,0.2493,0.2525,0.2556,0.2578,0.2588,0.261,0.2614,0.2611,0.2614,0.265,0.2641,0.2623,0.2676,0.2649,0.2653,0.2679,0.2687,0.2693,0.2701,0.2603,0,0,0,0,0,0.2425,0.2446,0.2481,0.2503,0.2523,0.2551,0.2571,0.2586,0.2609,0.262,0.2628,0.2641,0.2662,0.2669,0.2685,0.2706,0.2718,0.2726,0.2732,0.2737,0.2746,0.2788,0.2799,0.2683,0.2683,0.2683,0,0,0.2422,0.2449,0.2458,0.2502,0.2529,0.2557,0.2563,0.2601,0.2624,0.2617,0.2651,0.2667,0.2676,0.2708,0.2723,0.2703,0.2779,0.2742,0.2746,0.2752,0.2792,0.2803,0.2813,0.2685,0.2685,0.2684,0,0,0.2429,0.2457,0.2475,0.2506,0.2553,0.2574,0.2588,0.2626,0.2648,0.268,0.2688,0.272,0.2739,0.2758,0.2767,0.2817,0.2817,0.2823,0.2853,0.2893,0.2903,0.2912,0.295,0.2962,0.2818,0.2818,0.2818,0,0.2424,0.2453,0.2488,0.2517,0.2542,0.2581,0.2605,0.2637,0.2677,0.2699,0.2697,0.2759,0.2765,0.2813,0.2834,0.2831,0.2854,0.2821,0.2901,0.291,0.2918,0.2955,0.2968,0.2821,0.282,0.282,0.282,0,0.2441,0.247,0.249,0.2535,0.2566,0.26,0.2645,0.268,0.2707,0.2735,0.2797,0.2818,0.2853,0.2865,0.2863,0.2929,0.2928,0.291,0.288,0.2933,0.2969,0.2981,0.2824,0.2823,0.2823,0.2822,0,0,0.2414,0.2484,0.249,0.2517,0.2578,0.2607,0.2655,0.271,0.2756,0.2796,0.285,0.2895,0.2919,0.2932,0.2945,0.2979,0.3058,0.2972,0.2973,0.3007,0.3156,0.3126,0.3136,0.3056,0.3058,0.306,0.3161,0,0.2416,0.2462,0.2497,0.2545,0.2576,0.2627,0.2672,0.2728,0.2784,0.285,0.2892,0.2955,0.2942,0.2976,0.3008,0.3057,0.3091,0.3033,0.3103,0.3105,0.307,0.315,0.2914,0.2982,0.3173,0.3175,0.3176,0,0.2417,0.2453,0.2488,0.2561,0.258,0.2611,0.2697,0.2749,0.2848,0.2895,0.2961,0.3006,0.3082,0.3058,0.3157,0.3123,0.3145,0.3169,0.3173,0.3137,0.3098,0.296,0.2997,0.3196,0.3194,0.3193,0.3192,0,0.2379,0.2448,0.2473,0.2497,0.2581,0.2609,0.2662,0.2758,0.2818,0.2939,0.2998,0.3083,0.315,0.319,0.3244,0.3212,0.3348,0.3302,0.3293,0.3291,0.31,0.3077,0.3364,0.3363,0.3363,0.3363,0.3363,0,0.2365,0.2392,0.246,0.2477,0.2528,0.2596,0.2667,0.274,0.285,0.2932,0.3024,0.3106,0.319,0.3271,0.3286,0.3344,0.3381,0.3324,0.3324,0.311,0.3089,0.3272,0.326,0.3367,0.3366,0.3365,0.3365,0,0.2319,0.2361,0.2402,0.2481,0.2509,0.2549,0.2659,0.2719,0.2837,0.2949,0.2994,0.3151,0.3273,0.3341,0.3436,0.341,0.3456,0.3456,0.3206,0.3175,0.3359,0.3348,0.3462,0.3462,0.3462,0.3462,0.3462,0,0.2299,0.2313,0.2387,0.2417,0.2452,0.2524,0.2574,0.2694,0.2759,0.297,0.3013,0.319,0.3287,0.3431,0.3441,0.3482,0.3496,0.326,0.3151,0.3385,0.3374,0.3363,0.3352,0.2917,0.2912,0.2908,0.2906,0,0.2277,0.2298,0.2334,0.2377,0.2425,0.2475,0.2555,0.2592,0.2746,0.2854,0.3005,0.3113,0.3287,0.3249,0.3321,0.3296,0.3236,0.3189,0.3509,0.2934,0.2881,0.2866,0.2872,0.2873,0.2876,0.2879,0.288,0.2882,0.2271,0.2268,0.2308,0.2341,0.2386,0.2401,0.2409,0.2496,0.2578,0.2698,0.2883,0.2971,0.3053,0.3064,0.2987,0.2931,0.3142,0.298,0.2987,0.2998,0.2923,0.2874,0.285,0.2853,0.2856,0.2858,0.286,0,0.2223,0.2229,0.2272,0.2289,0.2281,0.2342,0.2373,0.235,0.2386,0.2546,0.2662,0.255,0.2573,0.2632,0.2523,0.254,0.2462,0.2413,0.2282,0.232,0.2353,0.2237,0.1986,0.1983,0.1979,0.1976,0,0,0.2207,0.2194,0.2193,0.2168,0.2185,0.2135,0.2122,0.2109,0.2161,0.2184,0.2236,0.2482,0.26,0.2265,0.2235,0.2086,0.2168,0.2005,0.2723,0.261,0.2637,0.272,0.2593,0,0,0,0,0]},{"header":{"parameterUnit":"m.s-1","parameterCategory":2,"la1":30.2991,"la2":30.254,"lo1":-89.0895,"lo2":-89.0444,"dy":0.0017,"dx":0.0017,"nx":28,"ny":28,"refTime":"2024-03-14T21:00:00:Z","depth":"2","parameterNumber":3,"parameterNumberName":"V-component_of_CURRENTS"},"data":[0,0,0,0,0,0,0,0,0,0,0,0,0,0,0,0,0,0,0,0,0,0,0,0,0,0,0,0,0,0,0,0,0,0,0,0,0,0,0,0,0,0,0,0,0,0,0,0,0,0,0,0,0,0,0,0,0,0,0.006,0.0059,0,0.0005,0.0004,0.0003,-0.0044,-0.0044,-0.0045,-0.0045,-0.0126,-0.0127,-0.0129,0,0,0,0,0,0,0,0,0,0,0,0,0,0.0083,0.0083,0.006,0.0059,0.0058,0.0005,0.0004,0.0003,-0.0044,-0.0044,-0.0045,-0.0045,-0.0125,-0.0127,-0.0129,0,0,0,0,0,0,0,0,0,0,0,0,0,0.0054,0.0083,0.006,0.0029,0.0026,0.0005,0.0004,0.0003,-0.0044,-0.0044,-0.0045,-0.0046,-0.0124,-0.0127,-0.013,-0.0133,0,0,-0.0138,-0.0139,0,0,0,0,0,0,0,0,0.0056,0.0053,0.0034,0.0031,0.0028,-0.0012,-0.0017,-0.0043,-0.0044,-0.0018,-0.0045,-0.0046,-0.0089,-0.0094,-0.0105,-0.0137,-0.014,-0.0138,-0.0139,-0.0141,-0.0141,0,0,0,0,0,0,0,0.0058,0.0055,0.0037,0.0034,0.003,0.0005,0.0,-0.0023,-0.0051,-0.0021,-0.0024,-0.0028,-0.0091,-0.0102,-0.0107,-0.0142,-0.0138,-0.014,-0.0142,-0.0143,-0.0197,-0.0196,0,0,0,0,0,0,0.007,0.0057,0.0038,0.0035,0.0042,0.0005,-0.0,0.0,-0.005,-0.0058,-0.0027,-0.003,-0.0097,-0.0104,-0.011,-0.0115,-0.0141,-0.0143,-0.0145,-0.0197,-0.0197,-0.0196,0,0,0,0,0,0,0.0071,0.0069,0.0041,0.0045,0.004,0.0006,0.0006,-0.0,-0.0012,-0.0055,-0.0063,-0.0032,-0.0098,-0.0106,-0.0128,-0.0119,-0.0144,-0.0147,-0.0197,-0.0197,-0.0197,-0.0127,0,0,0,0,0,0,0.0072,0.007,0.0075,0.0047,0.004,0.0035,0.0007,-0.0001,-0.0013,-0.0017,-0.0061,-0.007,-0.0099,-0.0124,-0.0131,-0.0123,-0.0149,-0.0197,-0.0197,-0.0197,-0.0129,-0.0124,-0.012,0,0,0,0,0,0.0073,0.009,0.0076,0.0074,0.0049,0.0036,0.003,0.0002,-0.0012,-0.0012,-0.0044,-0.0068,-0.0128,-0.0126,-0.0134,-0.0126,-0.0197,-0.0197,-0.0197,-0.0131,-0.0125,-0.012,0,0,0,0,0,0,0.0102,0.0086,0.007,0.008,0.0061,0.0028,0.003,0.0008,-0.0017,-0.0019,-0.0064,-0.0074,-0.0091,-0.0119,-0.0116,-0.0143,-0.0167,-0.0168,-0.0115,-0.011,-0.0105,-0.0083,-0.0151,0,0,0,0,0,0.0112,0.012,0.0094,0.0101,0.0095,0.0062,0.0054,0.0036,0.001,-0.0002,-0.0034,-0.0068,-0.0096,-0.011,-0.0138,-0.0149,-0.0177,-0.0151,-0.0147,-0.0142,-0.0131,-0.0167,-0.0164,-0.0195,-0.0195,-0.0195,0,0,0.0125,0.0117,0.0121,0.0107,0.0091,0.0094,0.0056,0.0051,0.0051,-0.0006,-0.0014,-0.0052,-0.0096,-0.011,-0.012,-0.0131,-0.0149,-0.0142,-0.0138,-0.0129,-0.0166,-0.0163,-0.016,-0.0195,-0.0195,-0.0195,0,0,0.016,0.0149,0.0168,0.0157,0.0142,0.0122,0.0124,0.0095,0.0079,0.0064,0.0023,-0.0006,-0.0047,-0.0075,-0.0096,-0.0082,-0.0124,-0.0095,-0.0052,-0.0086,-0.0084,-0.0082,-0.0114,-0.0115,-0.0091,-0.0091,-0.0091,0,0.0174,0.0195,0.017,0.0184,0.0183,0.014,0.0157,0.0137,0.0103,0.0097,0.0071,0.001,-0.0029,-0.0047,-0.0046,-0.007,-0.0096,-0.0067,-0.0079,-0.0077,-0.0077,-0.011,-0.0112,-0.0088,-0.0088,-0.0089,-0.0089,0,0.0221,0.0236,0.0248,0.0251,0.0246,0.0254,0.0226,0.0219,0.0192,0.0167,0.0141,0.0082,0.0049,0.0026,-0.0007,-0.0019,-0.0042,-0.0068,-0.0088,-0.0069,-0.0106,-0.0109,-0.0083,-0.0084,-0.0085,-0.0086,0,0,0.0249,0.0277,0.0279,0.0296,0.0283,0.0286,0.0291,0.0282,0.0292,0.0241,0.0246,0.018,0.0145,0.012,0.007,0.0035,0.0011,-0.0008,-0.0011,-0.003,-0.0064,-0.0081,-0.0087,-0.0017,-0.0018,-0.0018,-0.0092,0,0.0289,0.0341,0.0338,0.0378,0.04,0.0373,0.0385,0.037,0.0344,0.0338,0.0269,0.0249,0.0181,0.0168,0.0122,0.0043,0.0004,0.0033,-0.0088,-0.0091,-0.0101,-0.0091,-0.0057,-0.012,-0.0096,-0.0096,-0.0097,0,0.0331,0.0362,0.0417,0.0453,0.046,0.0478,0.0492,0.0497,0.0474,0.0455,0.0416,0.0359,0.0303,0.0241,0.0116,0.0138,0.0047,-0.0024,-0.0029,-0.0069,-0.0115,-0.0137,-0.0128,-0.0104,-0.0103,-0.0103,-0.0102,0,0.0364,0.0413,0.0464,0.0473,0.0505,0.0529,0.0545,0.0537,0.056,0.0532,0.0543,0.0452,0.0424,0.0296,0.0146,0.0131,0.0007,-0.0035,-0.0138,-0.014,-0.0147,-0.0149,-0.0123,-0.0123,-0.0123,-0.0123,-0.0123,0,0.0405,0.0442,0.049,0.0516,0.0584,0.0584,0.0647,0.0646,0.0663,0.0709,0.0612,0.0624,0.0437,0.034,0.0185,0.0021,0.0034,-0.0123,-0.0158,-0.0122,-0.0121,-0.0137,-0.0137,-0.0126,-0.0125,-0.0124,-0.0124,0,0.043,0.046,0.0523,0.058,0.0607,0.0654,0.0731,0.0775,0.0779,0.0839,0.0837,0.0757,0.0631,0.0435,0.0234,0.0088,-0.0081,-0.0145,-0.0089,-0.0115,-0.0217,-0.0214,-0.0269,-0.027,-0.0271,-0.0271,-0.0272,0,0.0447,0.0486,0.0574,0.0627,0.066,0.0737,0.0799,0.0832,0.0889,0.0928,0.0966,0.0868,0.082,0.0515,0.0229,-0.0042,-0.008,-0.0188,-0.0217,-0.0203,-0.0231,-0.0226,-0.0221,-0.0202,-0.0202,-0.0202,-0.0203,0,0.0483,0.0516,0.0574,0.0687,0.0768,0.086,0.0953,0.1018,0.1071,0.1125,0.1175,0.1143,0.0863,0.0589,0.0214,0.0037,-0.0145,-0.0198,-0.0194,-0.0167,-0.0146,-0.0172,-0.0168,-0.0203,-0.0203,-0.0203,-0.0203,-0.0203,0.0512,0.056,0.0648,0.0754,0.0852,0.0974,0.1067,0.1165,0.1276,0.137,0.1331,0.13,0.0986,0.0511,0.0179,-0.0162,-0.0149,-0.0263,-0.0261,-0.0259,-0.0234,-0.0216,-0.0281,-0.0282,-0.0282,-0.0282,-0.0283,0,0.0547,0.0612,0.0712,0.0845,0.0959,0.1011,0.1165,0.1258,0.1403,0.1481,0.1523,0.1245,0.0935,0.0574,0.0058,-0.0247,-0.0262,-0.0329,-0.0289,-0.0285,-0.0282,-0.0258,-0.0313,-0.0314,-0.0315,-0.0316,0,0,0.0569,0.0666,0.0721,0.0913,0.1016,0.1179,0.1277,0.1413,0.1503,0.1578,0.1568,0.1507,0.1063,0.0685,0.0265,-0.0031,-0.0079,-0.0075,-0.0013,0.0089,0.0095,-0.0205,-0.0159,0,0,0,0,0]}],[{"header":{"parameterUnit":"m.s-1","parameterCategory":2,"la1":30.2991,"la2":30.254,"lo1":-89.0895,"lo2":-89.0444,"dy":0.0017,"dx":0.0017,"nx":28,"ny":28,"refTime":"2024-03-14T21:00:00:Z","depth":"4","parameterNumber":2,"parameterNumberName":"U-component_of_CURRENTS"},"data":[0,0,0,0,0,0,0,0,0,0,0,0,0,0,0,0,0,0,0,0,0,0,0,0,0,0,0,0,0,0,0,0,0,0,0,0,0,0,0,0,0,0,0,0,0,0,0,0,0,0,0,0,0,0,0,0,0,0,0.1571,0.1572,0,0.1657,0.1658,0.1659,0.1728,0.1729,0.173,0.173,0.1822,0.1824,0.1826,0,0,0,0,0,0,0,0,0,0,0,0,0,0.1466,0.1468,0.1571,0.1572,0.1573,0.1657,0.1658,0.1659,0.1728,0.1729,0.173,0.1731,0.1822,0.1824,0.1826,0,0,0,0,0,0,0,0,0,0,0,0,0,0.1527,0.1468,0.1571,0.1618,0.1623,0.1657,0.1658,0.166,0.1728,0.1729,0.173,0.1731,0.1821,0.1823,0.1826,0.1819,0,0,0.1834,0.1835,0,0,0,0,0,0,0,0,0.1524,0.1531,0.161,0.1615,0.1621,0.1684,0.1655,0.1714,0.1727,0.1687,0.173,0.1732,0.1776,0.1782,0.1795,0.1824,0.1828,0.1834,0.1836,0.1837,0.1838,0,0,0,0,0,0,0,0.152,0.1528,0.1604,0.1611,0.1618,0.1635,0.1645,0.1667,0.1724,0.1691,0.1696,0.1707,0.1779,0.1792,0.1798,0.1829,0.1834,0.1837,0.1838,0.1839,0.1966,0.1967,0,0,0,0,0,0,0.1509,0.1524,0.1602,0.1607,0.1575,0.1636,0.1647,0.1662,0.1724,0.1734,0.1706,0.171,0.1787,0.1795,0.1801,0.1895,0.1837,0.1839,0.1841,0.1964,0.1966,0.1968,0,0,0,0,0,0,0.1507,0.1515,0.1598,0.1568,0.158,0.1637,0.1653,0.1663,0.1713,0.1735,0.1746,0.1749,0.1788,0.1798,0.1856,0.1895,0.1841,0.1843,0.1962,0.1965,0.1967,0.2019,0,0,0,0,0,0,0.1503,0.1514,0.1538,0.1567,0.1581,0.1644,0.1652,0.1664,0.1715,0.1722,0.1775,0.1782,0.179,0.1852,0.1858,0.1898,0.1845,0.1959,0.1963,0.1966,0.2015,0.2023,0.203,0,0,0,0,0,0.1499,0.1521,0.1538,0.1549,0.1606,0.1645,0.1655,0.1698,0.1716,0.1746,0.1783,0.1783,0.1878,0.1855,0.1862,0.1903,0.1958,0.1962,0.1966,0.2011,0.2021,0.2029,0,0,0,0,0,0,0.1488,0.1531,0.1551,0.1586,0.1625,0.1658,0.1694,0.1716,0.1768,0.1787,0.1803,0.1814,0.1882,0.1884,0.1859,0.195,0.1919,0.1924,0.1951,0.196,0.1967,0.1968,0.1847,0,0,0,0,0,0.1495,0.1528,0.1565,0.1599,0.1622,0.1663,0.1691,0.1721,0.1761,0.1787,0.1822,0.1861,0.1897,0.1923,0.1954,0.2,0.2007,0.2032,0.204,0.2046,0.2052,0.2094,0.2106,0.1981,0.1981,0.1981,0,0,0.1498,0.1528,0.1548,0.16,0.1637,0.1674,0.1685,0.174,0.1778,0.1787,0.1862,0.1892,0.1916,0.1974,0.2004,0.1985,0.2088,0.2051,0.2056,0.2059,0.2099,0.2111,0.2122,0.1984,0.1983,0.1983,0,0,0.1512,0.1553,0.1584,0.1621,0.1683,0.1707,0.1729,0.1784,0.1824,0.1886,0.1907,0.196,0.2016,0.2042,0.2058,0.2124,0.2128,0.2142,0.218,0.2221,0.2231,0.224,0.2272,0.2283,0.2143,0.2144,0.2144,0,0.1518,0.156,0.16,0.1639,0.1673,0.1724,0.1762,0.1805,0.1874,0.1908,0.1922,0.2022,0.2044,0.2107,0.2135,0.2141,0.2164,0.2141,0.223,0.2239,0.2248,0.2278,0.229,0.2146,0.2146,0.2146,0.2146,0,0.1543,0.1593,0.1618,0.1682,0.1722,0.177,0.1824,0.1879,0.1929,0.1968,0.2058,0.2096,0.2153,0.2173,0.2176,0.2254,0.2252,0.2235,0.2203,0.2263,0.2291,0.2303,0.2151,0.215,0.2149,0.2148,0,0,0.1511,0.1615,0.1628,0.1671,0.1753,0.1786,0.1856,0.1925,0.1984,0.2055,0.2126,0.2194,0.2227,0.2248,0.227,0.2307,0.2388,0.2305,0.2306,0.233,0.2487,0.2337,0.2335,0.2394,0.2397,0.2398,0.2484,0,0.1524,0.1601,0.1648,0.1726,0.177,0.1836,0.1895,0.1967,0.2038,0.2121,0.2175,0.2259,0.2252,0.2302,0.2337,0.2385,0.2421,0.2367,0.243,0.2432,0.2286,0.2343,0.2405,0.2492,0.2495,0.2497,0.2498,0,0.1523,0.1582,0.1656,0.1761,0.1787,0.184,0.1947,0.2013,0.2125,0.2184,0.2266,0.2319,0.2405,0.2386,0.2485,0.2458,0.2479,0.25,0.2504,0.2351,0.2303,0.242,0.2519,0.2517,0.2516,0.2514,0.2513,0,0.147,0.1583,0.1646,0.1682,0.1801,0.1854,0.1926,0.2037,0.2103,0.2244,0.2305,0.2404,0.2476,0.2521,0.2568,0.2546,0.2662,0.2628,0.2509,0.2499,0.2585,0.2574,0.2687,0.2687,0.2687,0.2687,0.2687,0,0.1444,0.1501,0.1638,0.1671,0.1757,0.185,0.1948,0.2035,0.2159,0.2233,0.2346,0.241,0.2519,0.2588,0.2606,0.2593,0.2692,0.2525,0.2512,0.2606,0.2596,0.2593,0.2581,0.269,0.2689,0.2689,0.2688,0,0.1367,0.1459,0.1539,0.1681,0.1734,0.1799,0.1952,0.2013,0.2153,0.2253,0.2304,0.2451,0.2544,0.262,0.2709,0.2631,0.2643,0.2611,0.2722,0.2713,0.2444,0.2434,0.2481,0.2476,0.2472,0.2469,0.2466,0,0.1332,0.1368,0.1527,0.158,0.1651,0.1767,0.1834,0.1991,0.205,0.2248,0.2273,0.2431,0.2505,0.2515,0.2604,0.263,0.2596,0.2577,0.2487,0.2441,0.2425,0.2421,0.2416,0.246,0.2459,0.2458,0.2457,0,0.126,0.1326,0.1391,0.15,0.1587,0.1669,0.1783,0.1812,0.1979,0.2124,0.2198,0.2258,0.2358,0.2423,0.2469,0.2475,0.2574,0.2536,0.2543,0.2458,0.2416,0.2403,0.2403,0.2444,0.2446,0.2447,0.2448,0,0.1208,0.1225,0.1318,0.1401,0.1496,0.1537,0.1618,0.1695,0.1778,0.199,0.2012,0.2181,0.2333,0.2344,0.2382,0.2386,0.2341,0.2246,0.2267,0.2283,0.2177,0.2093,0.2017,0,0,0,0,0,0.1148,0.1152,0.1215,0.129,0.1371,0.1435,0.156,0.164,0.1801,0.1801,0.1903,0.1988,0.2064,0.2157,0.2121,0.2287,0.2342,0.2233,0.2241,0.2369,0.2385,0.2277,0,0,0,0,0,0,0.1105,0.1151,0.117,0.1173,0.1203,0.1279,0.1354,0.1471,0.1485,0.1663,0.1723,0.186,0.1973,0.2067,0.2082,0.2107,0.2069,0.2343,0.2337,0.2361,0.2375,0.2387,0.2281,0,0,0,0,0]},{"header":{"parameterUnit":"m.s-1","parameterCategory":2,"la1":30.2991,"la2":30.254,"lo1":-89.0895,"lo2":-89.0444,"dy":0.0017,"dx":0.0017,"nx":28,"ny":28,"refTime":"2024-03-14T21:00:00:Z","depth":"4","parameterNumber":3,"parameterNumberName":"V-component_of_CURRENTS"},"data":[0,0,0,0,0,0,0,0,0,0,0,0,0,0,0,0,0,0,0,0,0,0,0,0,0,0,0,0,0,0,0,0,0,0,0,0,0,0,0,0,0,0,0,0,0,0,0,0,0,0,0,0,0,0,0,0,0,0,0.0067,0.0067,0,0.0028,0.0028,0.0027,-0.0007,-0.0007,-0.0007,-0.0008,-0.007,-0.0071,-0.0073,0,0,0,0,0,0,0,0,0,0,0,0,0,0.0082,0.0082,0.0067,0.0067,0.0066,0.0028,0.0028,0.0027,-0.0007,-0.0007,-0.0007,-0.0008,-0.007,-0.0071,-0.0073,0,0,0,0,0,0,0,0,0,0,0,0,0,0.0061,0.0082,0.0067,0.0046,0.0044,0.0029,0.0028,0.0027,-0.0007,-0.0007,-0.0007,-0.0008,-0.0069,-0.0071,-0.0073,-0.0077,0,0,-0.0079,-0.008,0,0,0,0,0,0,0,0,0.0063,0.0061,0.0049,0.0047,0.0045,0.0016,0.001,-0.0009,-0.0006,0.0011,-0.0008,-0.0008,-0.0042,-0.0047,-0.0054,-0.008,-0.0083,-0.008,-0.0081,-0.0082,-0.0082,0,0,0,0,0,0,0,0.0064,0.0062,0.0051,0.0049,0.0046,0.0028,0.0024,0.0006,-0.0014,0.001,0.0008,0.0005,-0.0044,-0.0052,-0.0056,-0.0084,-0.008,-0.0081,-0.0083,-0.0084,-0.0129,-0.0129,0,0,0,0,0,0,0.0073,0.0064,0.0052,0.005,0.0054,0.0028,0.0024,0.0025,-0.0013,-0.0019,0.0005,0.0004,-0.0048,-0.0053,-0.0058,-0.0064,-0.0082,-0.0084,-0.0085,-0.0129,-0.0129,-0.0129,0,0,0,0,0,0,0.0074,0.0073,0.0054,0.0056,0.0053,0.0028,0.0029,0.0024,0.0016,-0.0016,-0.0023,0.0002,-0.0049,-0.0055,-0.0073,-0.0067,-0.0085,-0.0087,-0.0129,-0.0129,-0.0129,-0.0077,0,0,0,0,0,0,0.0074,0.0073,0.0078,0.0057,0.0053,0.0049,0.003,0.0024,0.0015,0.0012,-0.0021,-0.0028,-0.005,-0.007,-0.0075,-0.007,-0.0088,-0.0129,-0.0129,-0.0129,-0.0078,-0.0075,-0.0072,0,0,0,0,0,0.0075,0.0087,0.0079,0.0077,0.006,0.0049,0.0046,0.0026,0.0016,0.0015,-0.0008,-0.0027,-0.0074,-0.0071,-0.0078,-0.0073,-0.0129,-0.0129,-0.0129,-0.008,-0.0075,-0.0072,0,0,0,0,0,0,0.0095,0.0084,0.0074,0.0082,0.0068,0.0044,0.0045,0.0029,0.0011,0.001,-0.0024,-0.0032,-0.0046,-0.0068,-0.0064,-0.0087,-0.0105,-0.0106,-0.0066,-0.0062,-0.0058,-0.0042,-0.009,0,0,0,0,0,0.0102,0.0109,0.009,0.0096,0.0092,0.0069,0.0062,0.005,0.003,0.0021,-0.0003,-0.0029,-0.005,-0.0062,-0.0084,-0.0093,-0.0119,-0.0096,-0.0093,-0.009,-0.0082,-0.0116,-0.0114,-0.0129,-0.0129,-0.0129,0,0,0.0112,0.0107,0.011,0.0101,0.009,0.0092,0.0064,0.006,0.006,0.0018,0.0011,-0.0017,-0.0051,-0.0063,-0.0071,-0.008,-0.01,-0.009,-0.0087,-0.008,-0.0115,-0.0114,-0.0113,-0.0129,-0.0129,-0.0129,0,0,0.0137,0.013,0.0144,0.0137,0.0126,0.0112,0.0113,0.0091,0.008,0.0069,0.0038,0.0015,-0.0017,-0.0039,-0.0055,-0.0047,-0.0081,-0.0056,-0.0025,-0.0058,-0.0056,-0.0056,-0.0088,-0.009,-0.0054,-0.0054,-0.0054,0,0.0147,0.0163,0.0146,0.0156,0.0156,0.0125,0.0138,0.0123,0.0097,0.0092,0.0074,0.0026,-0.0004,-0.0021,-0.002,-0.0038,-0.0063,-0.0035,-0.0052,-0.0052,-0.0052,-0.0085,-0.0089,-0.0051,-0.0052,-0.0052,-0.0052,0,0.0179,0.0192,0.02,0.0204,0.0201,0.0208,0.0187,0.0183,0.0164,0.0144,0.0123,0.0077,0.0051,0.0033,0.0009,-0.0006,-0.0025,-0.0043,-0.0059,-0.0047,-0.0083,-0.0088,-0.0048,-0.0049,-0.0049,-0.005,0,0,0.0197,0.022,0.0222,0.0237,0.0229,0.0231,0.0237,0.023,0.0238,0.0198,0.02,0.0149,0.0121,0.0101,0.0063,0.0031,0.0004,-0.0001,-0.0004,-0.0026,-0.0069,-0.0075,-0.0081,-0.0018,-0.0018,-0.0019,-0.0094,0,0.0225,0.0263,0.0263,0.0295,0.0312,0.0295,0.0307,0.0296,0.0276,0.0269,0.0215,0.0199,0.0148,0.0138,0.0097,0.003,-0.0006,0.0026,-0.0083,-0.0086,-0.0087,-0.0086,-0.002,-0.0097,-0.0098,-0.0099,-0.01,0,0.0252,0.0277,0.0319,0.0351,0.0357,0.0373,0.0387,0.0393,0.0373,0.0358,0.0325,0.0281,0.0231,0.0187,0.0074,0.0097,0.0023,-0.0037,-0.0041,-0.0066,-0.01,-0.0113,-0.0108,-0.0108,-0.0107,-0.0107,-0.0106,0,0.0273,0.0313,0.0352,0.036,0.039,0.0412,0.0428,0.0423,0.044,0.0418,0.0422,0.0346,0.0319,0.0215,0.0088,0.0083,-0.0038,-0.0063,-0.0142,-0.0144,-0.0139,-0.0139,-0.0142,-0.0141,-0.0141,-0.0141,-0.0141,0,0.0297,0.0327,0.0371,0.0391,0.0447,0.0452,0.0503,0.0505,0.0518,0.0543,0.0474,0.0468,0.0324,0.0236,0.0113,-0.0026,-0.0023,-0.0134,-0.0162,-0.0116,-0.0113,-0.0142,-0.0142,-0.0144,-0.0143,-0.0143,-0.0142,0,0.0307,0.0335,0.0385,0.0435,0.0461,0.0499,0.0567,0.0599,0.0604,0.0636,0.0635,0.056,0.0442,0.0289,0.0118,0.0015,-0.0122,-0.0174,-0.0107,-0.0131,-0.0213,-0.0209,-0.0266,-0.0267,-0.0267,-0.0268,-0.0269,0,0.0315,0.0344,0.042,0.0461,0.049,0.0556,0.0607,0.0642,0.0678,0.0689,0.0704,0.0612,0.0539,0.0305,0.013,-0.0102,-0.0141,-0.0211,-0.022,-0.0203,-0.0226,-0.022,-0.0215,-0.027,-0.027,-0.027,-0.027,0,0.0328,0.0357,0.04,0.0492,0.0558,0.0632,0.0706,0.0742,0.078,0.0785,0.0767,0.0648,0.0514,0.0315,0.0135,-0.0035,-0.0164,-0.0219,-0.0219,-0.0228,-0.0209,-0.0229,-0.0223,-0.0272,-0.0272,-0.0272,-0.0272,0,0.0338,0.037,0.0437,0.0517,0.0602,0.0685,0.0725,0.0776,0.0818,0.083,0.082,0.0679,0.0597,0.035,0.0183,0.0016,-0.0035,-0.0091,-0.0099,-0.0099,-0.0034,0.0016,0.0001,0,0,0,0,0,0.0345,0.039,0.0461,0.0555,0.0638,0.0698,0.0781,0.0812,0.0854,0.0853,0.0843,0.0719,0.0483,0.038,0.0212,0.0144,-0.0081,-0.006,-0.0154,-0.0286,-0.0283,-0.0237,0,0,0,0,0,0,0.0352,0.0418,0.0458,0.0573,0.0643,0.0745,0.0804,0.0833,0.0834,0.0846,0.0724,0.0675,0.044,0.0583,0.021,0.0158,0.0075,-0.0169,-0.0173,-0.0287,-0.0285,-0.0282,-0.0235,0,0,0,0,0]}]]